Weather History for KPWC - September, 2013

Change the Weather History Date:

Friday, September 13, 2013

  Actual Average Record
Temperature  
Mean Temperature 52 °F -  
Max Temperature 68 °F - - ()
Min Temperature 37 °F - - ()
Degree Days  
Heating Degree Days 12    
Growing Degree Days 2 (Base 50)    
Moisture  
Dew Point 45 °F    
Average Humidity 78    
Maximum Humidity 100    
Minimum Humidity 49    
Precipitation  
Precipitation 0.00 in - - ()
Sea Level Pressure  
Sea Level Pressure 30.22 in    
Wind  
Wind Speed 2 mph (South)    
Max Wind Speed 12 mph    
Max Gust Speed -    
Visibility 10 miles    
Events      
T = Trace of Precipitation, MM = Missing Value Source: NWS Daily Summary

Daily Weather History Graph

Daily Weather History Graph

Search for Another Location

Airport or City:

Trip Planner

Search our weather history database for the weather conditions in past years. The results will help you decide how hot, cold, wet, or windy it might be!

Date:

Astronomy

Sep. 13, 2013 Rise Set
Actual Time 6:53 AM CDT 7:32 PM CDT
Civil Twilight 6:22 AM CDT 8:03 PM CDT
Nautical Twilight 5:46 AM CDT 8:39 PM CDT
Astronomical Twilight 5:08 AM CDT 9:17 PM CDT
Moon 3:38 PM CDT (9/13) 12:06 AM CDT (9/13)
Length of Visible Light 13h 40m
Length of Day
12h 39m
First Quarter, 61% of the Moon is Illuminated
Sep 13
First Quarter
Sep 19
Full
Sep 26
Last Quarter
Oct 4
New
Oct 11
First Quarter

Hourly Weather History & Observations

Time (CDT) Temp. Windchill Dew Point Humidity Pressure Visibility Wind Dir Wind Speed Gust Speed Precip Events Conditions
12:13 AM 44.6 °F - 42.8 °F 93% 30.29 in 10.0 mi Calm Calm - N/A   Clear
12:32 AM 42.8 °F - 42.8 °F 100% 30.29 in 10.0 mi Calm Calm - N/A   Clear
12:53 AM 42.8 °F - 42.8 °F 100% 30.29 in 10.0 mi Calm Calm - N/A   Clear
1:13 AM 42.8 °F - 42.8 °F 100% 30.29 in 10.0 mi Calm Calm - N/A   Clear
1:32 AM 42.8 °F - 42.8 °F 100% 30.28 in 10.0 mi Calm Calm - N/A   Clear
1:53 AM 41.0 °F - 41.0 °F 100% 30.29 in 10.0 mi Calm Calm - N/A   Clear
2:12 AM 39.2 °F - 39.2 °F 100% 30.29 in 5.0 mi Calm Calm - N/A   Clear
2:33 AM 41.0 °F - 41.0 °F 100% 30.29 in 10.0 mi Calm Calm - N/A   Clear
2:52 AM 41.0 °F - 39.2 °F 93% 30.29 in 10.0 mi Calm Calm - N/A   Clear
3:13 AM 39.2 °F - 39.2 °F 100% 30.28 in 10.0 mi Calm Calm - N/A   Clear
3:32 AM 39.2 °F - 39.2 °F 100% 30.28 in 10.0 mi Calm Calm - N/A   Clear
3:53 AM 39.2 °F - 39.2 °F 100% 30.28 in 10.0 mi Calm Calm - N/A   Clear
4:12 AM 39.2 °F - 39.2 °F 100% 30.28 in 10.0 mi Calm Calm - N/A   Clear
4:33 AM 37.4 °F - 37.4 °F 100% 30.28 in 10.0 mi Calm Calm - N/A   Clear
4:53 AM 37.4 °F - 37.4 °F 100% 30.29 in 10.0 mi Calm Calm - N/A   Clear
5:13 AM 37.4 °F - 37.4 °F 100% 30.29 in 10.0 mi Calm Calm - N/A   Clear
5:33 AM 37.4 °F - 37.4 °F 100% 30.29 in 10.0 mi Calm Calm - N/A   Clear
5:53 AM 37.4 °F - 37.4 °F 100% 30.29 in 10.0 mi Calm Calm - N/A   Clear
6:13 AM 37.4 °F - 37.4 °F 100% 30.29 in 10.0 mi Calm Calm - N/A   Scattered Clouds
6:32 AM 37.4 °F - 37.4 °F 100% 30.29 in 10.0 mi Calm Calm - N/A   Scattered Clouds
6:53 AM 37.4 °F - 37.4 °F 100% 30.29 in 10.0 mi Calm Calm - N/A   Clear
7:13 AM 37.4 °F - 37.4 °F 100% 30.29 in 10.0 mi Calm Calm - N/A   Clear
7:32 AM 37.4 °F - 37.4 °F 100% 30.29 in 10.0 mi Calm Calm - N/A   Clear
7:53 AM 39.2 °F - 39.2 °F 100% 30.29 in 10.0 mi Calm Calm - N/A   Clear
8:13 AM 42.8 °F - 42.8 °F 100% 30.29 in 10.0 mi Calm Calm - N/A   Clear
8:33 AM 46.4 °F - 46.4 °F 100% 30.29 in 10.0 mi Calm Calm - N/A   Clear
8:53 AM 48.2 °F - 48.2 °F 100% 30.29 in 10.0 mi Calm Calm - N/A   Clear
9:13 AM 53.6 °F - 46.4 °F 77% 30.29 in 10.0 mi South 4.6 mph - N/A   Clear
9:32 AM 55.4 °F - 46.4 °F 72% 30.29 in 10.0 mi South 4.6 mph - N/A   Clear
9:53 AM 57.2 °F - 46.4 °F 67% 30.29 in 10.0 mi South 6.9 mph - N/A   Clear
10:13 AM 57.2 °F - 48.2 °F 72% 30.29 in 10.0 mi South 9.2 mph - N/A   Clear
10:32 AM 59.0 °F - 48.2 °F 67% 30.29 in 10.0 mi South 5.8 mph - N/A   Clear
10:53 AM 60.8 °F - 48.2 °F 63% 30.28 in 10.0 mi SSE 8.1 mph - N/A   Clear
11:13 AM 60.8 °F - 48.2 °F 63% 30.28 in 10.0 mi SSE 5.8 mph - N/A   Clear
11:32 AM 62.6 °F - 48.2 °F 59% 30.28 in 10.0 mi South 5.8 mph - N/A   Clear
11:53 AM 62.6 °F - 48.2 °F 59% 30.27 in 10.0 mi SSE 8.1 mph - N/A   Scattered Clouds
12:13 PM 64.4 °F - 48.2 °F 56% 30.26 in 10.0 mi SSW 8.1 mph - N/A   Scattered Clouds
12:33 PM 64.4 °F - 46.4 °F 52% 30.26 in 10.0 mi South 5.8 mph - N/A   Scattered Clouds
12:52 PM 64.4 °F - 46.4 °F 52% 30.25 in 10.0 mi Calm Calm - N/A   Clear
1:13 PM 64.4 °F - 48.2 °F 56% 30.23 in 10.0 mi SSE 9.2 mph - N/A   Scattered Clouds
1:33 PM 66.2 °F - 48.2 °F 52% 30.23 in 10.0 mi SSW 8.1 mph - N/A   Scattered Clouds
1:52 PM 66.2 °F - 48.2 °F 52% 30.22 in 10.0 mi South 8.1 mph - N/A   Scattered Clouds
2:13 PM 66.2 °F - 48.2 °F 52% 30.21 in 10.0 mi SSW 5.8 mph - N/A   Scattered Clouds
2:32 PM 66.2 °F - 48.2 °F 52% 30.20 in 10.0 mi South 5.8 mph - N/A   Clear
2:53 PM 66.2 °F - 48.2 °F 52% 30.19 in 10.0 mi South 6.9 mph - N/A   Clear
3:13 PM 66.2 °F - 48.2 °F 52% 30.18 in 10.0 mi SSW 9.2 mph - N/A   Clear
3:32 PM 66.2 °F - 48.2 °F 52% 30.17 in 10.0 mi SSE 11.5 mph - N/A   Clear
3:53 PM 68.0 °F - 48.2 °F 49% 30.16 in 10.0 mi SSW 9.2 mph - N/A   Clear
4:13 PM 68.0 °F - 48.2 °F 49% 30.16 in 10.0 mi South 5.8 mph - N/A   Clear
4:32 PM 68.0 °F - 48.2 °F 49% 30.15 in 10.0 mi South 6.9 mph - N/A   Clear
4:53 PM 68.0 °F - 48.2 °F 49% 30.15 in 10.0 mi South 5.8 mph - N/A   Clear
5:13 PM 68.0 °F - 48.2 °F 49% 30.14 in 10.0 mi South 9.2 mph - N/A   Clear
5:32 PM 68.0 °F - 48.2 °F 49% 30.14 in 10.0 mi SSW 8.1 mph - N/A   Clear
5:53 PM 66.2 °F - 48.2 °F 52% 30.13 in 10.0 mi South 5.8 mph - N/A   Clear
6:13 PM 66.2 °F - 48.2 °F 52% 30.13 in 10.0 mi South 6.9 mph - N/A   Clear
6:33 PM 66.2 °F - 48.2 °F 52% 30.12 in 10.0 mi South 5.8 mph - N/A   Clear
6:53 PM 64.4 °F - 48.2 °F 56% 30.12 in 10.0 mi South 5.8 mph - N/A   Clear
7:13 PM 62.6 °F - 50.0 °F 63% 30.11 in 10.0 mi South 3.5 mph - N/A   Clear
7:33 PM 60.8 °F - 50.0 °F 68% 30.11 in 10.0 mi Calm Calm - N/A   Clear
7:53 PM 57.2 °F - 50.0 °F 77% 30.11 in 10.0 mi Calm Calm - N/A   Clear
8:13 PM 53.6 °F - 48.2 °F 82% 30.11 in 10.0 mi Calm Calm - N/A   Clear
8:33 PM 53.6 °F - 48.2 °F 82% 30.10 in 10.0 mi SSE 3.5 mph - N/A   Clear
8:53 PM 51.8 °F - 48.2 °F 88% 30.10 in 10.0 mi SSE 4.6 mph - N/A   Clear
9:13 PM 51.8 °F - 48.2 °F 88% 30.10 in 10.0 mi Calm Calm - N/A   Clear
9:33 PM 50.0 °F - 46.4 °F 87% 30.09 in 10.0 mi SSE 3.5 mph - N/A   Clear
9:53 PM 51.8 °F - 46.4 °F 82% 30.09 in 10.0 mi SSE 4.6 mph - N/A   Clear
10:13 PM 51.8 °F - 46.4 °F 82% 30.08 in 10.0 mi SSE 3.5 mph - N/A   Clear
10:33 PM 50.0 °F - 46.4 °F 87% 30.08 in 10.0 mi SSE 3.5 mph - N/A   Clear
10:52 PM 48.2 °F - 46.4 °F 93% 30.08 in 10.0 mi SE 3.5 mph - N/A   Clear
11:13 PM 46.4 °F 45.2 °F 44.6 °F 93% 30.07 in 10.0 mi SE 3.5 mph - N/A   Clear
11:33 PM 46.4 °F - 46.4 °F 100% 30.07 in 10.0 mi Calm Calm - N/A   Clear
11:53 PM 46.4 °F - 44.6 °F 93% 30.07 in 10.0 mi Calm Calm - N/A   Clear